Regional Weather Roundup
Issued by NWS

Home | Current Version | Previous Version | Graphics & Text | Print | Product List | Glossary On
Versions: 1 2 3 4 5 6 7 8 9 10 11 12 13 14 15 16 17 18 19 20 21 22 23 24 25 26 27
000
ASUS45 KTFX 190210
RWRMT
MONTANA REGIONAL WEATHER ROUNDUP
NATIONAL WEATHER SERVICE GREAT FALLS MT
700 PM MST SAT FEB 18 2017

NOTE: "FAIR" INDICATES FEW OR NO CLOUDS BELOW 12000 FEET WITH NO
SIGNIFICANT WEATHER AND/OR OBSTRUCTIONS TO VISIBILITY.

MTZ001>007-043-190300-
WEST OF THE DIVIDE

CITY           SKY/WX    TMP DP  RH WIND       PRES   REMARKS
KALISPELL      CLOUDY    36  32  85 N6        29.36S WCI  31
MISSOULA       CLOUDY    36  31  82 CALM      29.35F
BUTTE          CLOUDY    41  29  62 SE9       29.46R
MULLAN PASS    SNOW      31  31 100 VRB6      29.32S VSB 1/4 WCI  25
ANACONDA         N/A     43  30  61 SE9       29.42S
DEER LODGE       N/A     43  32  65 S7        29.43F
EUREKA           N/A     30  28  93 CALM      29.39F
HAMILTON         N/A     50  30  46 S6        29.36R
LIBBY            N/A     32  32 100 CALM      29.37S
PLAINS           N/A     38  29  70 CALM      29.42
RONAN            N/A     33  29  86 CALM      29.45F
$$

MTZ008-052>055-190300-
SOUTHWEST MONTANA

CITY           SKY/WX    TMP DP  RH WIND       PRES   REMARKS
BOZEMAN        CLOUDY    41  31  67 S12       29.47F
DILLON         CLOUDY    44  28  53 S14       29.47R
W YELLOWSTONE  LGT SNOW  32  32 100 S3        29.61S
ENNIS          CLOUDY    43  30  61 S17       29.55F
THREE FORKS      N/A     47 -50   1 S21       29.52S
TWIN BRIDGES     N/A     45  29  53 E15       29.52
$$

MTZ009-010-012-014-046-048-049-054-190300-
EAST SLOPES AND CENTRAL MONTANA

CITY           SKY/WX    TMP DP  RH WIND       PRES   REMARKS
CUT BANK       CLOUDY    35  29  78 CALM      29.40S
GREAT FALLS    CLOUDY    50  30  46 S9        29.39S
MALMSTROM AFB  CLOUDY    45  31  58 S6        29.40R
HELENA         CLOUDY    50  31  48 S12G20    29.40S
AUGUSTA        MOCLDY    38  32  81 N8        29.38S WCI  32
BOWMANS CRNR   MOCLDY    45  30  57 S8        29.37S
CHOTEAU          N/A     36  34  93 N5        29.41S
CONRAD           N/A     37  36  96 CALM      29.48R
POWER            N/A     41  31  66 E12       29.38S
RAYNESFORD       N/A     47  29  51 SE13      29.42S
ULM            CLOUDY    49  33  52 MISG      29.39R
$$

MTZ011-013-016-021-045-047-050-051-190300-
NORTH CENTRAL MONTANA

CITY           SKY/WX    TMP DP  RH WIND       PRES   REMARKS
HAVRE          CLOUDY    39  33  79 E21       29.43F WCI  29
LEWISTOWN      CLOUDY    41  30  65 E9        29.46S
N BAR RANCH      N/A     41  28  60 SE3       29.53S
CHINOOK          N/A     37  32  81 E12       29.48S WCI  30
DENTON         MOCLDY    45  31  59 E3        29.41S
FORT BENTON      N/A     46  30  53 MISG      29.41S
GEYSER         MOCLDY    42  29  61 CALM      29.43S
GRASS RANGE      N/A     40  29  64 SE8       29.45F
JUDITH GAP       N/A     43  33  66 SE17G23   29.47F
ROY              N/A     41  32  70 MISG      29.46F
STANFORD       MOCLDY    46  31  55 S14       29.45R
WINIFRED         N/A     42  31  64 SE14      29.45R
$$

MTZ017>020-022>027-061-062-190300-
NORTHEAST MONTANA

CITY           SKY/WX    TMP DP  RH WIND       PRES   REMARKS
GLASGOW        CLOUDY    35  30  82 E18       29.58S WCI  24
JORDAN           N/A     39  32  76 E8        29.54F
SIDNEY         CLOUDY    34  30  85 NE8       29.65R WCI  27
WOLF POINT     CLOUDY    35  31  85 E12       29.64S WCI  27
PLENTYWOOD       N/A     34  32  93 E12       29.68R WCI  25
POPLAR           N/A     34  30  86 NE13      29.65S WCI  25
SCOBEY           N/A     35  27  73 CALM      29.65
$$

MTZ028>42-056>058-190300-
SOUTHCENTRAL AND SOUTHEAST MONTANA

CITY           SKY/WX    TMP DP  RH WIND       PRES   REMARKS
BAKER          CLOUDY    34  29  82 SE6       29.60R WCI  29
BILLINGS       CLOUDY    43  33  68 NW6       29.50S
LIVINGSTON     CLOUDY    47  30  51 SW20      29.49F
MILES CITY     CLOUDY    43  31  62 NE7       29.55F
BIG TIMBER     CLEAR     45  30  57 CALM      29.52S
EKALAKA          N/A     41  27  57 SE2       29.60
FORSYTH          N/A     41  34  75 E6        29.53F
HARLOWTON      MOCLDY    43  31  62 S10       29.47S
LAUREL           N/A     43  25  49 NW1       29.54S
$$

REGIONAL REPORTS...DAKOTAS

CITY           SKY/WX    TMP DP  RH WIND       PRES   REMARKS
WILLISTON      CLOUDY    35  31  85 NE8       29.68R WCI  29
MINOT          CLOUDY    34  32  92 N5        29.73S
DICKINSON      CLEAR     32  29  88 NE9       29.60F WCI  24
BEACH            N/A    N/A N/A N/A MISG        N/A
CROSBY         CLOUDY    32  32 100 SE7       29.72R WCI  26
TIOGA            N/A     32  32 100 E13       29.70S WCI  22
WATFORD CITY     N/A     32  32 100 E8        29.68R WCI  25
BISMARCK       CLOUDY    37  33  85 E9        29.69S WCI  30
GRAND FORKS    MOCLDY    35  30  82 CALM      29.80R
FARGO          MOCLDY    38  37  97 NE3       29.79R
BUFFALO SD       N/A     47  33  58 NE7       29.53S
RAPID CITY     CLEAR     47  30  51 E7        29.59S
$$

REGIONAL REPORTS...WYOMING/IDAHO/WASHINGTON

CITY           SKY/WX    TMP DP  RH WIND       PRES   REMARKS
GILLETTE       CLOUDY    53  32  44 S22       29.58R
SHERIDAN       PTCLDY    38  31  76 VRB6      29.55R
BUFFALO WY     CLOUDY    51  28  41 VRB5      29.57S
YELLOWSTONE LA   N/A     31  31 100 CALM      29.65R
IDAHO FALLS    CLOUDY    36  36 100 NE3       29.59S
SALMON         CLOUDY    41  32  70 S8        29.43F
BOISE          CLOUDY    48  39  71 SE12      29.43R
SPOKANE        LGT RAIN  35  33  92 SW13      29.38R WCI  26
$$

REGIONAL REPORTS...ALBERTA

CITY           SKY/WX    TMP DP  RH WIND       PRES   REMARKS
EDMONTON       CLOUDY    34  32  93 E10       29.52F WCI  26
CALGARY        LGT SNOW  32  30  93 SE7       29.40F WCI  26
LETHBRIDGE     CLOUDY    34  32  93 NW5       29.40F
MEDICINE HAT   CLOUDY    41  32  70 E7        29.44F
WATERTON GATE    N/A     30  28  93 CALM        N/A
CARDSTON         N/A     32  28  86 NW1         N/A
MILK RIVER       N/A     36  32  87 E2          N/A
$$

REGIONAL REPORTS...SASKATCHEWAN

CITY           SKY/WX    TMP DP  RH WIND       PRES   REMARKS
SWIFT CURRENT  CLOUDY    34  32  93 E20G25    29.56F WCI  22
REGINA         MOCLDY    32  30  93 E8        29.71S WCI  25
SASKATOON      FOG       30  30 100 E10       29.71F VSB 1/2 WCI  21
CYPRESS HILLS    N/A     34  28  80 SE15G23     N/A  WCI  24
ROCKGLEN         N/A     32  30  93 E8          N/A  WCI  25
ASSINIBOIA       N/A     36  32  87 E7          N/A  WCI  30
$$




USA.gov is the U.S. government's official web portal to all federal, state and local government web resources and services.